Previsão horária em Senhora da Hora

Hoje, 30 Novembro, Segunda-feira

Tempo Temperatura Precipitação Vento Pressão Humidade
00:00 +12°C° 0 mm 3 m/s 756 mmHg 77%
01:00 +12°C° 0 mm 3 m/s 756 mmHg 78%
02:00 +11°C° 0 mm 3 m/s 757 mmHg 79%
03:00 +11°C° 0 mm 3 m/s 757 mmHg 79%
04:00 +11°C° 0 mm 3 m/s 757 mmHg 78%
05:00 +11°C° 0 mm 3 m/s 757 mmHg 78%
06:00 +11°C° 0 mm 3 m/s 758 mmHg 76%
07:00 +12°C° 0 mm 3 m/s 758 mmHg 75%
08:00 +12°C° 0 mm 3 m/s 758 mmHg 73%
09:00 +14°C° 0 mm 3 m/s 758 mmHg 68%
10:00 +16°C° 0 mm 3 m/s 758 mmHg 63%
11:00 +18°C° 0 mm 3 m/s 759 mmHg 58%
12:00 +18°C° 0 mm 3 m/s 758 mmHg 57%
13:00 +19°C° 0 mm 3 m/s 758 mmHg 56%
14:00 +19°C° 0 mm 3 m/s 758 mmHg 55%
15:00 +18°C° 0 mm 3 m/s 758 mmHg 60%
16:00 +16°C° 0 mm 3 m/s 758 mmHg 64%
17:00 +14°C° 0 mm 3 m/s 758 mmHg 68%
18:00 +13°C° 0 mm 3 m/s 759 mmHg 68%
19:00 +13°C° 0 mm 3 m/s 759 mmHg 68%
20:00 +12°C° 0 mm 3 m/s 760 mmHg 68%
21:00 +13°C° 0 mm 2 m/s 760 mmHg 68%
22:00 +13°C° 0 mm 2 m/s 760 mmHg 67%
23:00 +13°C° 0 mm 2 m/s 760 mmHg 67%

Amanhã, 1 Dezembro, Terça-feira

Tempo Temperatura Precipitação Vento Pressão Humidade
00:00 +13°C° 0 mm 2 m/s 760 mmHg 67%
01:00 +12°C° 0 mm 2 m/s 760 mmHg 66%
02:00 +12°C° 0 mm 2 m/s 760 mmHg 66%
03:00 +12°C° 0 mm 2 m/s 760 mmHg 66%
04:00 +12°C° 0 mm 2 m/s 760 mmHg 66%
05:00 +11°C° 0 mm 3 m/s 760 mmHg 66%
06:00 +12°C° 0 mm 2 m/s 760 mmHg 66%
07:00 +12°C° 0 mm 2 m/s 760 mmHg 65%
08:00 +12°C° 0 mm 2 m/s 760 mmHg 65%
09:00 +14°C° 0 mm 2 m/s 760 mmHg 58%
10:00 +16°C° 0 mm 1 m/s 760 mmHg 52%
11:00 +19°C° 0 mm 1 m/s 760 mmHg 45%
12:00 +19°C° 0 mm 1 m/s 759 mmHg 44%
13:00 +18°C° 0 mm 2 m/s 759 mmHg 43%
14:00 +19°C° 0 mm 2 m/s 758 mmHg 41%
15:00 +17°C° 0 mm 2 m/s 758 mmHg 46%
16:00 +14°C° 0 mm 3 m/s 758 mmHg 50%
17:00 +13°C° 0 mm 3 m/s 758 mmHg 55%
18:00 +12°C° 0 mm 3 m/s 758 mmHg 54%
19:00 +12°C° 0 mm 2 m/s 759 mmHg 54%
20:00 +12°C° 0 mm 2 m/s 759 mmHg 53%
21:00 +12°C° 0 mm 2 m/s 758 mmHg 53%
22:00 +10°C° 0 mm 2 m/s 758 mmHg 52%
23:00 +10°C° 0 mm 2 m/s 758 mmHg 52%

Depois de amanhã, 2 Dezembro, Quarta-feira

Tempo Temperatura Precipitação Vento Pressão Humidade
00:00 +11°C° 0 mm 1 m/s 758 mmHg 53%
01:00 +11°C° 0 mm 1 m/s 758 mmHg 53%
02:00 +11°C° 0 mm 1 m/s 757 mmHg 54%
03:00 +11°C° 0 mm 1 m/s 757 mmHg 55%
04:00 +10°C° 0 mm 2 m/s 757 mmHg 56%
05:00 +10°C° 0 mm 2 m/s 757 mmHg 57%
06:00 +10°C° 0 mm 2 m/s 757 mmHg 58%
07:00 +10°C° 0 mm 2 m/s 756 mmHg 59%
08:00 +10°C° 0 mm 3 m/s 756 mmHg 60%
09:00 +12°C° 0 mm 3 m/s 756 mmHg 57%
10:00 +13°C° 0 mm 3 m/s 756 mmHg 54%
11:00 +16°C° 0 mm 3 m/s 756 mmHg 51%
12:00 +16°C° 0 mm 3 m/s 756 mmHg 51%
13:00 +17°C° 0 mm 3 m/s 755 mmHg 51%
14:00 +17°C° 0 mm 3 m/s 755 mmHg 50%
15:00 +16°C° 0 mm 3 m/s 755 mmHg 55%
16:00 +13°C° 0 mm 3 m/s 755 mmHg 60%
17:00 +12°C° 0 mm 3 m/s 755 mmHg 65%
18:00 +11°C° 0 mm 3 m/s 756 mmHg 66%
19:00 +11°C° 0 mm 3 m/s 756 mmHg 66%
20:00 +10°C° 0 mm 3 m/s 756 mmHg 67%
21:00 +10°C° 0 mm 3 m/s 756 mmHg 66%
22:00 +9°C° 0 mm 3 m/s 756 mmHg 66%
23:00 +9°C° 0 mm 3 m/s 757 mmHg 65%

3 Dezembro, Quinta-feira

Tempo Temperatura Precipitação Vento Pressão Humidade
00:00 +9°C° 0 mm 3 m/s 756 mmHg 65%
01:00 +8°C° 0 mm 3 m/s 756 mmHg 65%
02:00 +8°C° 0 mm 3 m/s 756 mmHg 66%
03:00 +8°C° 0 mm 2 m/s 755 mmHg 66%
04:00 +7°C° 0 mm 2 m/s 755 mmHg 66%
05:00 +7°C° 0 mm 2 m/s 755 mmHg 67%
06:00 +8°C° 0 mm 1 m/s 755 mmHg 65%
07:00 +9°C° 0 mm 1 m/s 755 mmHg 64%
08:00 +9°C° 0 mm 1 m/s 754 mmHg 62%
09:00 +11°C° 0 mm 1 m/s 754 mmHg 58%
10:00 +12°C° 0 mm 1 m/s 754 mmHg 54%
11:00 +13°C° 0 mm 1 m/s 753 mmHg 50%
12:00 +13°C° 0 mm 1 m/s 753 mmHg 54%
13:00 +13°C° 0 mm 2 m/s 752 mmHg 58%
14:00 +13°C° 0 mm 2 m/s 751 mmHg 62%
15:00 +12°C° 0.1 mm 3 m/s 751 mmHg 68%
16:00 +12°C° 0.1 mm 5 m/s 751 mmHg 74%
17:00 +10°C° 0.1 mm 6 m/s 751 mmHg 80%
18:00 +10°C° 0.1 mm 7 m/s 751 mmHg 79%
19:00 +10°C° 0.1 mm 7 m/s 750 mmHg 79%
20:00 +10°C° 0.1 mm 7 m/s 750 mmHg 78%
21:00 +10°C° 0.2 mm 7 m/s 749 mmHg 78%
22:00 +11°C° 0.2 mm 8 m/s 749 mmHg 77%
23:00 +11°C° 0.2 mm 9 m/s 749 mmHg 76%

4 Dezembro, Sexta-feira

Tempo Temperatura Precipitação Vento Pressão Humidade
00:00 +11°C° 0.4 mm 9 m/s 748 mmHg 76%
01:00 +9°C° 0.4 mm 10 m/s 748 mmHg 75%
02:00 +9°C° 0.4 mm 10 m/s 747 mmHg 74%
03:00 +9°C° 0.3 mm 11 m/s 747 mmHg 74%
04:00 +9°C° 0.3 mm 11 m/s 747 mmHg 75%
05:00 +8°C° 0.3 mm 11 m/s 747 mmHg 75%
06:00 +8°C° 0.4 mm 11 m/s 747 mmHg 76%
07:00 +7°C° 0.4 mm 11 m/s 747 mmHg 77%
08:00 +7°C° 0.4 mm 11 m/s 747 mmHg 78%
09:00 +7°C° 0.5 mm 10 m/s 748 mmHg 75%
10:00 +7°C° 0.5 mm 10 m/s 748 mmHg 72%
11:00 +7°C° 0.5 mm 10 m/s 748 mmHg 69%
12:00 +7°C° 0.4 mm 10 m/s 748 mmHg 68%
13:00 +7°C° 0.4 mm 11 m/s 748 mmHg 67%
14:00 +7°C° 0.4 mm 11 m/s 748 mmHg 67%
15:00 +6°C° 0.4 mm 11 m/s 748 mmHg 69%
16:00 +6°C° 0.4 mm 11 m/s 748 mmHg 70%
17:00 +6°C° 0.4 mm 10 m/s 749 mmHg 72%
18:00 +6°C° 0.4 mm 10 m/s 749 mmHg 72%
19:00 +6°C° 0.4 mm 10 m/s 750 mmHg 72%
20:00 +6°C° 0.4 mm 10 m/s 750 mmHg 71%
21:00 +5°C° 0.4 mm 10 m/s 750 mmHg 72%
22:00 +5°C° 0.4 mm 10 m/s 751 mmHg 73%
23:00 +5°C° 0.4 mm 9 m/s 751 mmHg 74%

5 Dezembro, Sábado

Tempo Temperatura Precipitação Vento Pressão Humidade
00:00 +5°C° 0.4 mm 9 m/s 751 mmHg 75%
01:00 +5°C° 0.4 mm 9 m/s 751 mmHg 77%
02:00 +5°C° 0.4 mm 9 m/s 751 mmHg 79%
03:00 +5°C° 0.4 mm 9 m/s 751 mmHg 78%
04:00 +5°C° 0.4 mm 9 m/s 751 mmHg 77%
05:00 +5°C° 0.4 mm 9 m/s 751 mmHg 76%
06:00 +5°C° 0.3 mm 8 m/s 752 mmHg 75%
07:00 +6°C° 0.3 mm 8 m/s 752 mmHg 75%
08:00 +6°C° 0.3 mm 8 m/s 753 mmHg 74%
09:00 +7°C° 0.2 mm 8 m/s 753 mmHg 72%
10:00 +7°C° 0.2 mm 8 m/s 753 mmHg 69%
11:00 +9°C° 0.2 mm 8 m/s 753 mmHg 66%
12:00 +9°C° 0.1 mm 7 m/s 753 mmHg 66%
13:00 +9°C° 0.1 mm 7 m/s 753 mmHg 66%
14:00 +9°C° 0.1 mm 7 m/s 753 mmHg 66%
15:00 +9°C° 0.1 mm 7 m/s 753 mmHg 69%
16:00 +8°C° 0.1 mm 6 m/s 753 mmHg 71%
17:00 +8°C° 0.1 mm 6 m/s 754 mmHg 74%
18:00 +8°C° 0.1 mm 6 m/s 754 mmHg 75%
19:00 +9°C° 0.1 mm 5 m/s 754 mmHg 77%
20:00 +9°C° 0.1 mm 5 m/s 754 mmHg 78%
21:00 +9°C° 0.1 mm 5 m/s 753 mmHg 81%
22:00 +9°C° 0.1 mm 6 m/s 753 mmHg 83%
23:00 +10°C° 0.1 mm 7 m/s 752 mmHg 86%
Mostrar mais

Necessitamos do seu Consentimento

A Meteoprog e os seus Fornecedores de Serviços podem armazenar e aceder a dados pessoais como cookies, identificadores do dispositivo ou outras tecnologias semelhantes existentes no seu dispositivo e processar estes dados para personalizar conteúdos e anúncios, assim como funcionalidades nas redes sociais e análise de tráfego.

  • Armazenar e/ou aceder a informações no seu dispositivo

    Os cookies, identificadores do dispositivo ou outras informações podem ser armazenados ou acedidos no seu dispositivo, para os fins acima indicados.

  • Anúncios e conteúdos personalizados, medição de anúncios e conteúdos, dados sobre o público-alvo e desenvolvimento de produtos

    Os anúncios e os conteúdos podem ser personalizados com base num perfil. Podem ser adicionados dados adicionais para uma maior personalização dos anúncios e dos conteúdos. A eficácia dos anúncios e dos conteúdos pode ser medida. Podem ser obtidas informações sobre o público que visualizou os anúncios e os conteúdos. Estes dados podem ser usados para desenvolver ou melhorar sistemas, softwares ou a experiência do utilizador.

Ao clicar em "Eu concordo”, permitirá o uso de cookies, identificadores do dispositivo e web beacons mencionados ou outras tecnologias semelhantes. As configurações do navegador do seu dispositivo podem ser alteradas.

Para certos fins, podem ser invocados interesses legítimos ao invés de consentimento. Pode ler mais informação sobre este assunto na nossa Política de Privacidade e Cookies.